Location: Boulder, CO
(40.0083°N, 105.2472°W)
Time: 07:59:00

SORCE - Visible Passes

Search period start: 28 October 2016 00:00
Search period end: 06 November 2016 23:00
Orbit: 588 x 617 km, 40.0° (Epoch: 28 October)

Date Brightness Start Highest point End Pass type
(mag) Time Alt. Az. Time Alt. Az. Time Alt. Az.
28 Oct 8.7 19:46:20 10° WSW 19:48:18 13° SW 19:50:17 10° S visible
30 Oct 8.6 18:25:48 10° WSW 18:28:55 19° SSW 18:32:03 10° SSE visible
31 Oct 9.1 18:38:34 10° SW 18:39:44 11° SW 18:40:53 10° SSW visible
